Powrót do katalogu

STARLINK-31195

AktywnyŁącznośćVLEO
NORAD 58796·PAYLOAD·🇺🇸 United States

Wystrzelony Jan 15, 2024 z Cape Canaveral Space Force Station

Loading…

Następne Przeloty (najbliższe 24 godziny)

TLE

ŚwieżeSource: CelesTrak SupGP

Epoka: Sep 14, 2026, 21:13 UTC

1 58796C 24012K   26257.88451389 -.00014903  00000+0 -53973-3 0  2577
2 58796  42.9992 177.2034 0000998 252.7756 187.2392 15.27590367    14

Śledź STARLINK-31195 w czasie rzeczywistym z AllMySat

Download on the App Store